Hourly Weather Rusanivka

Today, 15 April, Thursday

Time Temperature Precipitation Wind Pressure Humidity
00:00 +9°C° 0 mm 1 mps 743 mmHg 83%
01:00 +8°C° 0 mm 1 mps 743 mmHg 85%
02:00 +7°C° 0 mm 2 mps 742 mmHg 89%
03:00 +6°C° 0 mm 2 mps 742 mmHg 90%
04:00 +6°C° 0 mm 2 mps 742 mmHg 92%
05:00 +6°C° 0 mm 2 mps 742 mmHg 94%
06:00 +7°C° 0 mm 2 mps 742 mmHg 91%
07:00 +8°C° 0 mm 2 mps 742 mmHg 87%
08:00 +9°C° 0 mm 2 mps 742 mmHg 84%
09:00 +9°C° 0.4 mm 2 mps 742 mmHg 83%
10:00 +9°C° 0.4 mm 3 mps 742 mmHg 83%
11:00 +10°C° 0.4 mm 3 mps 742 mmHg 82%
12:00 +9°C° 0.7 mm 3 mps 742 mmHg 85%
13:00 +9°C° 0.7 mm 3 mps 742 mmHg 88%
14:00 +8°C° 0.7 mm 3 mps 742 mmHg 91%
15:00 +8°C° 1.1 mm 3 mps 741 mmHg 92%
16:00 +8°C° 1.1 mm 3 mps 741 mmHg 94%
17:00 +7°C° 1.1 mm 4 mps 741 mmHg 95%
18:00 +6°C° 1.4 mm 4 mps 741 mmHg 95%
19:00 +6°C° 1.4 mm 4 mps 741 mmHg 96%
20:00 +6°C° 1.4 mm 4 mps 741 mmHg 96%
21:00 +6°C° 1 mm 4 mps 740 mmHg 96%
22:00 +7°C° 1 mm 3 mps 740 mmHg 96%
23:00 +7°C° 1 mm 3 mps 740 mmHg 97%

Tomorrow, 16 April, Friday

Time Temperature Precipitation Wind Pressure Humidity
00:00 +5°C° 0.3 mm 3 mps 740 mmHg 97%
01:00 +5°C° 0.3 mm 3 mps 740 mmHg 96%
02:00 +5°C° 0.3 mm 3 mps 740 mmHg 96%
03:00 +5°C° 0.1 mm 3 mps 740 mmHg 96%
04:00 +4°C° 0.1 mm 3 mps 740 mmHg 96%
05:00 +4°C° 0.1 mm 3 mps 740 mmHg 96%
06:00 +4°C° 0.1 mm 3 mps 740 mmHg 95%
07:00 +4°C° 0.1 mm 3 mps 740 mmHg 95%
08:00 +4°C° 0.1 mm 3 mps 740 mmHg 94%
09:00 +4°C° 0.1 mm 4 mps 740 mmHg 94%
10:00 +4°C° 0.1 mm 4 mps 741 mmHg 94%
11:00 +3°C° 0.1 mm 4 mps 741 mmHg 94%
12:00 +3°C° 0.2 mm 4 mps 741 mmHg 94%
13:00 +3°C° 0.2 mm 4 mps 742 mmHg 94%
14:00 +3°C° 0.2 mm 4 mps 742 mmHg 95%
15:00 +3°C° 0.2 mm 3 mps 742 mmHg 95%
16:00 +2°C° 0.2 mm 3 mps 743 mmHg 95%
17:00 +2°C° 0.2 mm 3 mps 743 mmHg 96%
18:00 +2°C° 0.1 mm 3 mps 743 mmHg 96%
19:00 +2°C° 0.1 mm 3 mps 744 mmHg 95%
20:00 +2°C° 0.1 mm 3 mps 744 mmHg 95%
21:00 +2°C° 0 mm 3 mps 744 mmHg 95%
22:00 +3°C° 0 mm 2 mps 745 mmHg 94%
23:00 +3°C° 0 mm 2 mps 745 mmHg 94%

Day after tomorrow, 17 April, Saturday

Time Temperature Precipitation Wind Pressure Humidity
00:00 +3°C° 0 mm 2 mps 745 mmHg 94%
01:00 +3°C° 0 mm 2 mps 745 mmHg 94%
02:00 +4°C° 0 mm 1 mps 745 mmHg 94%
03:00 +4°C° 0 mm 1 mps 745 mmHg 95%
04:00 +4°C° 0 mm 1 mps 746 mmHg 95%
05:00 +4°C° 0 mm 1 mps 746 mmHg 96%
06:00 +4°C° 0 mm 1 mps 746 mmHg 95%
07:00 +4°C° 0 mm 1 mps 746 mmHg 95%
08:00 +4°C° 0 mm 1 mps 747 mmHg 94%
09:00 +5°C° 0 mm 1 mps 747 mmHg 92%
10:00 +5°C° 0 mm 1 mps 747 mmHg 89%
11:00 +6°C° 0 mm 1 mps 747 mmHg 86%
12:00 +6°C° 0 mm 1 mps 748 mmHg 83%
13:00 +7°C° 0 mm 1 mps 748 mmHg 79%
14:00 +7°C° 0 mm 1 mps 748 mmHg 76%
15:00 +7°C° 0 mm 1 mps 748 mmHg 76%
16:00 +7°C° 0 mm 1 mps 748 mmHg 76%
17:00 +7°C° 0 mm 1 mps 748 mmHg 76%
18:00 +7°C° 0 mm 1 mps 748 mmHg 78%
19:00 +7°C° 0 mm 1 mps 748 mmHg 81%
20:00 +6°C° 0 mm 1 mps 748 mmHg 84%
21:00 +5°C° 0 mm 2 mps 748 mmHg 83%
22:00 +5°C° 0 mm 2 mps 748 mmHg 83%
23:00 +5°C° 0 mm 2 mps 748 mmHg 82%

18 April, Sunday

Time Temperature Precipitation Wind Pressure Humidity
00:00 +4°C° 0 mm 2 mps 748 mmHg 84%
01:00 +4°C° 0 mm 2 mps 747 mmHg 86%
02:00 +3°C° 0 mm 2 mps 747 mmHg 88%
03:00 +3°C° 0 mm 2 mps 747 mmHg 89%
04:00 +3°C° 0 mm 2 mps 747 mmHg 90%
05:00 +3°C° 0 mm 1 mps 747 mmHg 91%
06:00 +5°C° 0 mm 1 mps 747 mmHg 85%
07:00 +6°C° 0 mm 1 mps 747 mmHg 80%
08:00 +8°C° 0 mm 1 mps 747 mmHg 75%
09:00 +9°C° 0 mm 1 mps 747 mmHg 70%
10:00 +11°C° 0 mm 1 mps 747 mmHg 65%
11:00 +12°C° 0 mm 1 mps 747 mmHg 60%
12:00 +13°C° 0 mm 1 mps 747 mmHg 57%
13:00 +13°C° 0 mm 1 mps 747 mmHg 55%
14:00 +14°C° 0 mm 1 mps 747 mmHg 53%
15:00 +13°C° 0 mm 1 mps 747 mmHg 57%
16:00 +13°C° 0 mm 2 mps 747 mmHg 62%
17:00 +11°C° 0 mm 3 mps 747 mmHg 66%
18:00 +10°C° 0 mm 3 mps 747 mmHg 71%
19:00 +10°C° 0 mm 3 mps 747 mmHg 77%
20:00 +9°C° 0 mm 3 mps 748 mmHg 82%
21:00 +8°C° 0 mm 2 mps 748 mmHg 84%
22:00 +8°C° 0 mm 2 mps 748 mmHg 85%
23:00 +8°C° 0 mm 2 mps 748 mmHg 87%

19 April, Monday

Time Temperature Precipitation Wind Pressure Humidity
00:00 +8°C° 0 mm 2 mps 748 mmHg 89%
01:00 +8°C° 0 mm 2 mps 747 mmHg 90%
02:00 +7°C° 0 mm 2 mps 747 mmHg 92%
03:00 +7°C° 0 mm 2 mps 747 mmHg 93%
04:00 +7°C° 0 mm 3 mps 747 mmHg 93%
05:00 +7°C° 0 mm 3 mps 747 mmHg 94%
06:00 +7°C° 0 mm 3 mps 747 mmHg 94%
07:00 +7°C° 0 mm 3 mps 747 mmHg 93%
08:00 +7°C° 0 mm 3 mps 747 mmHg 92%
09:00 +7°C° 0 mm 4 mps 747 mmHg 87%
10:00 +8°C° 0 mm 4 mps 747 mmHg 83%
11:00 +9°C° 0 mm 5 mps 747 mmHg 78%
12:00 +10°C° 0.1 mm 5 mps 747 mmHg 72%
13:00 +10°C° 0.1 mm 5 mps 747 mmHg 66%
14:00 +12°C° 0.1 mm 5 mps 746 mmHg 60%
15:00 +12°C° 0 mm 5 mps 746 mmHg 62%
16:00 +10°C° 0 mm 6 mps 746 mmHg 63%
17:00 +10°C° 0 mm 6 mps 746 mmHg 65%
18:00 +9°C° 0 mm 6 mps 745 mmHg 67%
19:00 +9°C° 0 mm 6 mps 745 mmHg 70%
20:00 +8°C° 0 mm 6 mps 744 mmHg 72%
21:00 +7°C° 0 mm 6 mps 744 mmHg 76%
22:00 +7°C° 0 mm 6 mps 744 mmHg 80%
23:00 +5°C° 0 mm 6 mps 744 mmHg 84%

20 April, Tuesday

Time Temperature Precipitation Wind Pressure Humidity
00:00 +5°C° 0 mm 6 mps 743 mmHg 85%
01:00 +5°C° 0 mm 6 mps 743 mmHg 87%
02:00 +4°C° 0 mm 7 mps 743 mmHg 88%
03:00 +4°C° 0 mm 7 mps 742 mmHg 87%
04:00 +4°C° 0 mm 8 mps 742 mmHg 85%
05:00 +4°C° 0 mm 8 mps 742 mmHg 84%
06:00 +4°C° 0 mm 8 mps 742 mmHg 83%
07:00 +4°C° 0 mm 8 mps 742 mmHg 82%
08:00 +4°C° 0 mm 7 mps 741 mmHg 80%
09:00 +4°C° 0 mm 7 mps 741 mmHg 79%
10:00 +4°C° 0 mm 7 mps 741 mmHg 77%
11:00 +5°C° 0 mm 7 mps 741 mmHg 75%
12:00 +5°C° 0 mm 7 mps 741 mmHg 74%
13:00 +5°C° 0 mm 7 mps 741 mmHg 73%
14:00 +5°C° 0 mm 7 mps 740 mmHg 72%
15:00 +6°C° 0 mm 7 mps 740 mmHg 70%
16:00 +6°C° 0 mm 7 mps 740 mmHg 69%
17:00 +6°C° 0 mm 7 mps 740 mmHg 67%
18:00 +6°C° 0 mm 7 mps 739 mmHg 70%
19:00 +5°C° 0 mm 7 mps 739 mmHg 72%
20:00 +4°C° 0 mm 7 mps 739 mmHg 74%
21:00 +4°C° 0 mm 6 mps 739 mmHg 75%
22:00 +4°C° 0 mm 6 mps 739 mmHg 75%
23:00 +4°C° 0 mm 6 mps 739 mmHg 76%
Show more